This is the latest recevied weather packets stored in our database for station/object W7TTE. If no packets are shown the sender has not sent any weather packets the latest 10 day(s).
| Time | Temp. | Humidity | Pressure | Rain* | Wind** | Luminosity | Snow |
|---|---|---|---|---|---|---|---|
| 1777231462 | 23.89° C | 31% | 1013.6 hPa | 0 mm | - | 826 W/m² | - |
| 1777231159 | 23.89° C | 31% | 1013.7 hPa | 0 mm | - | 862 W/m² | - |
| 1777230855 | 23.89° C | 31% | 1013.5 hPa | 0 mm | - | 286 W/m² | - |
| 1777230555 | 23.89° C | 31% | 1013.7 hPa | 0 mm | - | 296 W/m² | - |
| 1777230251 | 23.89° C | 31% | 1013.6 hPa | 0 mm | - | 878 W/m² | - |
| 1777229948 | 23.33° C | 31% | 1013.7 hPa | 0 mm | - | 953 W/m² | - |
| 1777229644 | 23.89° C | 30% | 1013.6 hPa | 0 mm | - | 899 W/m² | - |
| 1777229341 | 23.89° C | 30% | 1013.7 hPa | 0 mm | - | 851 W/m² | - |
| 1777229038 | 23.89° C | 31% | 1013.6 hPa | 0 mm | - | 784 W/m² | - |
| 1777228735 | 23.33° C | 31% | 1013.8 hPa | 0 mm | - | 796 W/m² | - |
| 1777228431 | 22.78° C | 32% | 1013.8 hPa | 0 mm | - | 812 W/m² | - |
| 1777228127 | 23.33° C | 31% | 1013.8 hPa | 0 mm | - | 176 W/m² | - |
| 1777227825 | 22.78° C | 32% | 1014 hPa | 0 mm | - | 458 W/m² | - |
| 1777227523 | 23.33° C | 30% | 1013.8 hPa | 0 mm | - | 765 W/m² | - |
| 1777227218 | 22.78° C | 32% | 1013.7 hPa | 0 mm | - | 739 W/m² | - |
| 1777226915 | 22.78° C | 31% | 1013.9 hPa | 0 mm | - | 739 W/m² | - |
| 1777226613 | 22.78° C | 32% | 1013.8 hPa | 0 mm | - | 729 W/m² | - |
| 1777226310 | 22.78° C | 32% | 1013.9 hPa | 0 mm | - | 726 W/m² | - |
| 1777226006 | 22.22° C | 32% | 1014.2 hPa | 0 mm | - | 722 W/m² | - |
| 1777225701 | 22.78° C | 31% | 1014 hPa | 0 mm | - | 721 W/m² | - |
| 1777225399 | 22.22° C | 31% | 1014 hPa | 0 mm | - | 702 W/m² | - |
| 1777225095 | 22.22° C | 32% | 1013.9 hPa | 0 mm | - | 692 W/m² | - |
| 1777224792 | 22.22° C | 32% | 1013.8 hPa | 0 mm | - | 681 W/m² | - |
| 1777224488 | 22.22° C | 32% | 1014.1 hPa | 0 mm | - | 675 W/m² | - |
| 1777224183 | 22.22° C | 34% | 1013.8 hPa | 0 mm | - | 662 W/m² | - |
* Rain latest hour (hover to see other rain measurements)
** Current wind speed in m/s (hover to see current wind gust speed)